Location: Caserta
(41.0670°N, 14.3330°E)
Time: 00:56:24
(UTC+02:00)

STARLINK-1341 - Pass Details

Date: 30 May 2020
Orbit: 548 x 551 km, 53.0° (Epoch: 07 July)

Event Time Altitude Azimuth Distance (km) Brightness Sun altitude
Exits shadow 03:33:20 - 287° (WNW) 2,059 6.3 -17.8°
Reaches altitude 10° 03:34:02 10° 293° (WNW) 1,843 6.1 -17.7°
Maximum altitude 03:37:16 21° 343° (NNW) 1,285 5.9 -17.3°
Drops below altitude 10° 03:40:31 10° 34° (NNE) 1,856 7.6 -16.9°
Sets 03:43:13 0° 50° (NE) 2,757 8.8 -16.6°
